TimePST,TemperatureF,Dew PointF,Humidity,Sea Level PressureIn,VisibilityMPH,Wind Direction,Wind SpeedMPH,Gust SpeedMPH,PrecipitationIn,Events,Conditions,WindDirDegrees,DateUTC
12:10 AM,24.8,21.2,86,30.29,10.0,West,4.6,-,N/A,,Overcast,280,2012-12-31 08:10:00
12:30 AM,24.8,21.2,86,30.29,10.0,West,5.8,-,N/A,,Mostly Cloudy,270,2012-12-31 08:30:00
12:50 AM,24.8,21.2,86,30.29,10.0,WNW,5.8,-,N/A,,Overcast,290,2012-12-31 08:50:00
1:10 AM,24.8,23.0,93,30.29,10.0,West,4.6,-,N/A,,Overcast,280,2012-12-31 09:10:00
1:30 AM,24.8,21.2,86,30.31,10.0,West,5.8,-,N/A,,Overcast,280,2012-12-31 09:30:00
1:50 AM,24.8,21.2,86,30.32,10.0,West,5.8,-,N/A,,Overcast,270,2012-12-31 09:50:00
2:10 AM,24.8,23.0,93,30.32,10.0,West,4.6,-,N/A,,Overcast,270,2012-12-31 10:10:00
2:30 AM,24.8,23.0,93,30.32,10.0,West,6.9,-,N/A,,Overcast,260,2012-12-31 10:30:00
2:50 AM,24.8,21.2,86,30.32,10.0,West,5.8,-,N/A,,Overcast,270,2012-12-31 10:50:00
3:10 AM,24.8,21.2,86,30.31,10.0,West,5.8,-,N/A,,Overcast,260,2012-12-31 11:10:00
3:30 AM,24.8,21.2,86,30.31,10.0,West,5.8,-,N/A,,Overcast,270,2012-12-31 11:30:00
3:50 AM,23.0,23.0,100,30.30,10.0,West,4.6,-,N/A,,Overcast,260,2012-12-31 11:50:00
4:10 AM,23.0,21.2,93,30.30,10.0,West,5.8,-,N/A,,Overcast,280,2012-12-31 12:10:00
4:45 AM,21.2,17.6,86,30.31,10.0,West,3.5,-,N/A,,Overcast,270,2012-12-31 12:45:00
5:10 AM,19.4,17.6,93,30.30,10.0,West,5.8,-,N/A,,Overcast,270,2012-12-31 13:10:00
5:30 AM,19.4,17.6,93,30.30,10.0,West,4.6,-,N/A,,Mostly Cloudy,280,2012-12-31 13:30:00
6:10 AM,19.4,17.6,93,30.30,10.0,West,5.8,-,N/A,,Overcast,270,2012-12-31 14:10:00
6:30 AM,19.4,17.6,93,30.30,10.0,West,4.6,-,N/A,,Overcast,270,2012-12-31 14:30:00
6:50 AM,19.4,17.6,93,30.31,10.0,West,5.8,-,N/A,,Overcast,270,2012-12-31 14:50:00
7:10 AM,19.4,15.8,86,30.32,10.0,West,3.5,-,N/A,,Overcast,270,2012-12-31 15:10:00
7:30 AM,19.4,15.8,86,30.33,10.0,West,5.8,-,N/A,,Overcast,280,2012-12-31 15:30:00
7:50 AM,19.4,15.8,86,30.34,9.0,West,4.6,-,N/A,,Overcast,270,2012-12-31 15:50:00
8:10 AM,19.4,15.8,86,30.34,10.0,West,4.6,-,N/A,,Overcast,270,2012-12-31 16:10:00
8:30 AM,21.2,17.6,86,30.35,10.0,WNW,3.5,-,N/A,,Overcast,290,2012-12-31 16:30:00
8:50 AM,23.0,17.6,80,30.36,10.0,West,3.5,-,N/A,,Overcast,260,2012-12-31 16:50:00
9:10 AM,23.0,19.4,86,30.35,10.0,Calm,Calm,-,N/A,,Overcast,0,2012-12-31 17:10:00
9:30 AM,24.8,23.0,93,30.35,10.0,Calm,Calm,-,N/A,,Overcast,0,2012-12-31 17:30:00
9:50 AM,24.8,23.0,93,30.35,10.0,Calm,Calm,-,N/A,,Scattered Clouds,0,2012-12-31 17:50:00
10:10 AM,26.6,23.0,86,30.35,10.0,SSE,3.5,-,N/A,,Clear,150,2012-12-31 18:10:00
10:30 AM,26.6,23.0,86,30.34,10.0,Calm,Calm,-,N/A,,Partly Cloudy,0,2012-12-31 18:30:00
10:50 AM,26.6,23.0,86,30.32,10.0,Calm,Calm,-,N/A,,Scattered Clouds,0,2012-12-31 18:50:00
11:10 AM,28.4,23.0,80,30.31,10.0,Calm,Calm,-,N/A,,Scattered Clouds,0,2012-12-31 19:10:00
11:30 AM,28.4,24.8,86,30.30,10.0,Calm,Calm,-,N/A,,Partly Cloudy,0,2012-12-31 19:30:00
11:50 AM,30.2,24.8,80,30.30,10.0,Calm,Calm,-,N/A,,Clear,0,2012-12-31 19:50:00
12:10 PM,30.2,24.8,80,30.28,10.0,Calm,Calm,-,N/A,,Clear,0,2012-12-31 20:10:00
12:30 PM,32.0,24.8,75,30.28,10.0,Calm,Calm,-,N/A,,Clear,0,2012-12-31 20:30:00
12:50 PM,32.0,24.8,75,30.29,10.0,Calm,Calm,-,N/A,,Clear,0,2012-12-31 20:50:00
1:10 PM,32.0,24.8,75,30.28,10.0,Calm,Calm,-,N/A,,Clear,0,2012-12-31 21:10:00
1:30 PM,32.0,24.8,75,30.27,10.0,Calm,Calm,-,N/A,,Clear,0,2012-12-31 21:30:00
1:50 PM,32.0,24.8,75,30.26,10.0,Calm,Calm,-,N/A,,Clear,0,2012-12-31 21:50:00
2:10 PM,32.0,24.8,75,30.26,10.0,Calm,Calm,-,N/A,,Clear,0,2012-12-31 22:10:00
2:30 PM,35.6,24.8,65,30.26,10.0,Calm,Calm,-,N/A,,Clear,0,2012-12-31 22:30:00
2:50 PM,32.0,24.8,75,30.26,10.0,SSE,3.5,-,N/A,,Clear,160,2012-12-31 22:50:00
3:10 PM,33.8,26.6,75,30.26,10.0,Calm,Calm,-,N/A,,Clear,0,2012-12-31 23:10:00
3:30 PM,33.8,24.8,70,30.25,10.0,Calm,Calm,-,N/A,,Clear,0,2012-12-31 23:30:00
3:50 PM,32.0,26.6,80,30.25,10.0,Calm,Calm,-,N/A,,Clear,0,2012-12-31 23:50:00
4:10 PM,30.2,26.6,86,30.24,10.0,Calm,Calm,-,N/A,,Clear,0,2013-01-01 00:10:00
4:30 PM,28.4,26.6,93,30.24,10.0,West,3.5,-,N/A,,Clear,270,2013-01-01 00:30:00
4:50 PM,28.4,26.6,93,30.25,8.0,West,4.6,-,N/A,,Clear,260,2013-01-01 00:50:00
5:10 PM,28.4,26.6,93,30.25,10.0,West,4.6,-,N/A,,Clear,280,2013-01-01 01:10:00
5:30 PM,28.4,26.6,93,30.26,10.0,WNW,4.6,-,N/A,,Clear,290,2013-01-01 01:30:00
5:50 PM,28.4,26.6,93,30.26,10.0,WNW,3.5,-,N/A,,Clear,300,2013-01-01 01:50:00
6:10 PM,28.4,26.6,93,30.27,10.0,Calm,Calm,-,N/A,,Clear,0,2013-01-01 02:10:00
6:30 PM,26.6,24.8,93,30.27,9.0,West,3.5,-,N/A,,Clear,260,2013-01-01 02:30:00
6:50 PM,26.6,24.8,93,30.28,10.0,West,3.5,-,N/A,,Clear,270,2013-01-01 02:50:00
7:10 PM,26.6,24.8,93,30.28,10.0,West,3.5,-,N/A,,Mostly Cloudy,270,2013-01-01 03:10:00
7:30 PM,26.6,24.8,93,30.28,10.0,West,4.6,-,N/A,,Overcast,280,2013-01-01 03:30:00
7:50 PM,26.6,24.8,93,30.28,10.0,West,5.8,-,N/A,,Overcast,280,2013-01-01 03:50:00
8:10 PM,26.6,24.8,93,30.28,10.0,West,3.5,-,N/A,,Overcast,280,2013-01-01 04:10:00
8:30 PM,26.6,24.8,93,30.28,10.0,West,4.6,-,N/A,,Overcast,280,2013-01-01 04:30:00
8:50 PM,26.6,24.8,93,30.28,10.0,West,3.5,-,N/A,,Overcast,280,2013-01-01 04:50:00
9:10 PM,26.6,24.8,93,30.28,10.0,West,4.6,-,N/A,,Overcast,270,2013-01-01 05:10:00
9:30 PM,26.6,26.6,100,30.30,10.0,WNW,3.5,-,N/A,,Overcast,290,2013-01-01 05:30:00
9:50 PM,26.6,24.8,93,30.30,9.0,Calm,Calm,-,N/A,,Overcast,0,2013-01-01 05:50:00
10:10 PM,26.6,26.6,100,30.30,10.0,West,4.6,-,N/A,,Overcast,260,2013-01-01 06:10:00
10:30 PM,26.6,26.6,100,30.30,7.0,West,4.6,-,N/A,,Overcast,270,2013-01-01 06:30:00
10:50 PM,26.6,24.8,93,30.30,9.0,West,3.5,-,N/A,,Overcast,270,2013-01-01 06:50:00
11:10 PM,26.6,24.8,93,30.31,10.0,West,5.8,-,N/A,,Overcast,270,2013-01-01 07:10:00
11:30 PM,24.8,24.8,100,30.31,5.0,West,4.6,-,N/A,,Overcast,260,2013-01-01 07:30:00
11:50 PM,24.8,24.8,100,30.31,10.0,Calm,Calm,-,N/A,,Overcast,0,2013-01-01 07:50:00